SCP
0 0 0 0 -0 0 0 0 0 0 0 0 -0 -0 -0 -0 0 0 -0 -0 0 0 0 0 0 0 0 1 3 3 4 4 3 3 2 2 1 1 1 0 0 0 0 0
0 0 0 -0 0 0 0 -0 0 0 0 -0 0 0 -0 -0 -0 0 -0 -0 -0 0 0 0 0 0 0 1 3 3 4 3 3 2 1 1 1 0 0 0 0 0 0 0
-0 0 0 0 0 0 0 0 0 0 0 0 0 0 0 -0 -0 -0 0 -0 0 0 0 0 0 0 0 0 2 3 3 3 2 2 1 1 0 0 0 0 0 0 0 0
0 0 0 0 0 0 0 0 0 0 0 0 0 0 0 -0 -0 0 0 0 0 0 0 0 0 0 0 0 2 2 2 2 1 1 1 0 0 0 0 0 0 0 0 0
0 0 0 0 0 0 0 -0 0 0 -0 -0 -0 -0 -0 0 -0 0 -0 -0 -0 0 0 0 0 0 0 0 0 1 1 1 1 1 0 0 0 0 0 0 0 0 0 0
0 0 0 0 0 0 0 0 0 0 0 0 -0 -0 0 -0 0 -0 -0 -0 -0 0 0 0 0 0 0 0 0 0 1 1 1 0 0 0 0 0 0 0 0 0 0 0
0 0 0 0 0 0 0 0 0 0 -0 -0 -0 -0 0 -0 -0 -0 0 -0 0 0 0 0 0 0 0 0 0 0 0 0 0 0 0 0 0 0 0 0 0 0 0 0
0 0 0 0 0 0 0 0 0 -0 0 -0 0 0 -0 -0 -0 -0 -0 0 0 0 0 0 0 0 -0 0 0 0 0 0 0 0 0 0 0 0 0 0 0 0 0 0
0 0 0 0 -0 -0 0 0 0 -0 -0 -0 -0 -0 -0 -0 -0 0 -0 0 0 0 0 0 0 0 0 0 0 0 0 0 0 0 0 0 0 0 0 0 0 0 0 0
0 0 0 0 -0 0 0 0 0 -0 -0 -0 -0 -0 -0 -0 0 0 -0 0 0 0 0 0 0 0 0 0 -0 0 0 0 0 0 0 0 0 0 0 0 0 0 0 0
0 0 -0 0 0 0 0 0 -0 -0 -0 -0 -0 -0 -0 0 0 0 -0 0 0 0 0 0 0 0 0 0 0 0 0 0 0 0 0 0 0 0 0 0 0 0 0 0
0 -0 0 0 0 0 -0 -0 -0 -0 -0 -0 -0 0 0 0 0 0 0 0 0 0 0 0 0 0 0 0 0 0 0 0 0 0 0 0 0 0 0 0 0 0 -0 -0
0 0 0 0 0 -0 0 0 -0 -0 -0 -0 -0 -0 -0 0 0 0 0 0 0 0 0 0 0 -0 0 0 0 0 0 0 0 0 0 0 0 0 0 0 -0 -0 0 -0
0 0 0 0 0 0 0 -0 -0 -0 -0 0 0 0 0 0 0 0 0 0 0 0 0 0 0 0 0 0 -0 -0 0 0 0 0 0 0 0 0 0 0 0 0 0 0
0 0 0 0 -0 0 0 0 -0 -0 -0 -0 0 0 0 0 0 0 0 0 0 0 0 0 0 0 0 0 0 0 0 0 0 0 0 0 0 0 0 0 0 0 0 0
0 0 0 -0 -0 -0 0 0 -0 -0 -0 -0 0 0 0 0 0 0 0 0 0 0 0 0 0 0 0 0 0 0 -0 0 0 0 0 0 0 0 0 0 0 0 0 -0
0 0 0 0 -0 -0 -0 -0 -0 -0 -0 0 0 0 0 0 0 0 0 0 0 0 0 0 0 -0 0 0 0 0 -0 0 0 0 0 0 0 0 0 0 0 0 0 0
0 0 0 0 0 0 0 -0 -0 -0 0 0 0 0 0 0 0 0 0 0 0 0 0 0 0 0 0 0 0 0 -0 0 0 0 0 0 0 0 -0 -0 -0 0 0 -0
0 0 0 0 0 0 0 0 0 0 0 0 0 0 0 0 0 0 0 0 0 0 0 0 0 0 0 0 0 -0 -0 0 0 0 0 0 0 0 -0 -0 0 0 0 0
-0 0 -0 0 0 -0 0 0 0 0 -0 0 0 0 0 0 0 0 0 0 0 0 0 0 0 0 0 0 0 -0 -0 0 0 0 0 0 0 0 -0 0 0 0 0 -0
-0 0 -0 0 0 0 0 0 0 0 0 0 0 0 0 0 0 0 0 0 0 0 0 0 0 0 0 0 0 -0 0 0 0 0 0 0 0 0 0 0 0 0 0 0
-0 -0 0 -0 0 0 0 0 0 0 0 0 0 0 0 0 0 0 0 0 0 0 0 0 0 0 0 0 0 0 0 0 0 0 0 0 0 0 0 0 0 0 0 0
0 -0 0 -0 -0 0 0 -0 0 0 0 0 0 0 0 0 0 0 0 0 0 0 0 0 0 0 0 0 0 0 0 0 0 0 0 0 0 0 0 0 0 0 0 0
0 -0 -0 -0 0 -0 0 0 0 0 0 0 0 0 0 0 0 0 0 0 0 0 0 -0 0 0 0 0 0 0 0 0 0 0 0 0 0 0 0 0 0 0 0 0
-0 -0 -0 -0 -0 -0 0 0 0 0 0 0 0 0 0 0 0 0 0 0 0 0 -0 -0 -0 0 0 0 0 0 0 0 0 0 0 0 0 0 0 0 0 0 0 0
-0 -0 -0 0 -0 -0 -0 0 0 0 0 0 0 0 0 0 0 0 0 0 0 0 -0 -0 0 -0 0 0 0 0 0 0 0 0 0 0 0 0 0 0 0 0 0 0
-0 -0 -0 -0 -0 -0 -0 -0 -0 0 0 0 0 0 0 0 0 0 0 0 0 0 0 0 -0 -0 -0 0 0 0 0 0 0 0 0 0 0 0 0 0 0 0 0 0
Wind_Speed_500mb
18 29 33 40 42 41 36 35 25 39 42 41 24 22 27 25 34 40 78 46 66 92 91 79 56 53 26 28 35 45 56 64 65 63 54 49 49 47 46 51 58 62 58 50
25 35 40 38 35 37 39 39 38 35 38 18 12 19 16 31 37 37 44 61 47 65 68 81 54 56 27 20 36 49 58 67 64 57 53 50 50 47 50 52 59 61 56 46
19 5 20 20 14 12 10 18 18 17 22 6 12 17 19 41 45 24 39 63 64 60 71 76 71 47 25 18 30 45 66 64 61 55 54 56 54 56 51 58 63 58 49 42
6 6 7 11 7 8 13 16 17 13 17 12 17 35 35 36 15 37 49 63 67 62 66 65 68 58 21 15 28 43 57 58 58 59 61 61 59 53 60 64 59 54 44 41
5 8 13 16 10 4 5 29 8 13 14 14 29 30 23 16 30 44 56 56 58 57 56 60 59 55 24 21 27 30 52 58 66 70 70 65 54 60 59 61 56 49 42 41
5 7 11 12 6 7 7 16 10 13 19 24 29 26 19 42 68 72 69 54 57 65 52 49 52 52 37 20 9 16 49 61 69 69 66 59 64 62 60 54 50 46 45 36
16 10 14 12 9 14 4 14 8 17 45 46 29 36 66 70 78 75 66 61 65 63 53 46 53 56 39 23 30 13 36 64 67 64 57 63 62 61 57 53 47 45 43 37
6 10 13 10 9 11 19 20 32 41 63 65 75 74 61 60 71 85 74 68 60 62 52 46 46 53 22 19 26 45 51 78 72 63 61 65 61 57 51 53 51 48 42 40
10 9 13 22 42 57 56 60 55 57 62 64 68 69 64 60 77 74 56 60 63 61 53 40 40 36 13 31 36 31 31 74 64 57 61 61 59 55 52 51 49 48 43 39
11 12 21 40 62 44 61 53 65 70 70 76 71 67 68 70 73 61 54 61 58 55 47 40 35 28 5 49 73 41 41 65 63 61 63 60 54 50 49 49 46 46 45 40
13 19 29 35 49 62 66 72 78 77 70 61 61 63 71 75 65 57 56 58 55 43 40 35 35 25 9 28 19 10 62 63 65 61 59 59 55 50 43 40 37 42 41 37
26 41 42 49 71 79 76 70 55 48 62 71 66 75 64 66 73 68 65 52 49 35 33 26 33 21 11 14 8 27 57 66 68 58 57 57 54 47 40 35 30 23 25 26
30 51 68 74 70 58 55 55 65 76 83 76 61 50 59 76 76 54 44 48 41 32 23 17 23 8 16 15 9 25 47 62 66 56 56 54 50 50 51 42 34 29 29 26
61 51 38 31 43 61 63 85 74 58 61 63 66 61 61 57 50 40 42 42 33 25 20 12 8 13 13 13 23 37 52 64 49 50 51 50 47 51 48 47 45 39 34 34
54 51 39 59 76 61 69 67 59 57 55 59 56 57 52 50 47 40 36 28 24 19 12 10 10 15 17 18 38 54 54 60 54 49 45 42 45 46 43 40 43 42 39 37
56 36 58 58 67 66 60 56 53 56 53 54 44 27 10 20 22 23 21 27 29 26 12 2 6 23 26 25 46 63 69 55 49 48 45 43 43 45 44 44 46 44 40 37
34 38 54 62 61 57 54 52 47 48 47 36 26 15 19 17 18 21 25 26 21 17 19 21 15 27 27 57 56 62 60 59 50 49 44 40 39 42 43 44 47 46 38 27
34 44 51 51 51 60 53 47 42 40 36 25 13 14 19 24 26 29 29 31 27 23 24 31 33 28 50 60 68 64 68 57 51 45 41 38 35 36 41 45 46 43 33 28
40 52 51 47 44 47 46 44 42 40 30 21 16 19 18 18 23 30 38 43 40 37 32 44 38 37 56 74 77 69 65 54 47 43 37 36 33 39 46 42 40 34 31 33
48 63 60 50 54 48 43 38 40 40 33 21 21 23 24 25 32 34 39 42 40 36 43 45 48 43 50 74 64 64 62 48 40 37 41 39 36 40 41 39 39 37 35 40
50 65 56 49 55 55 50 50 52 47 41 30 36 38 35 34 38 37 39 42 28 23 31 39 37 38 47 55 54 56 55 42 39 39 43 41 42 40 41 43 46 44 47 49
53 63 57 51 50 54 57 55 57 51 47 45 41 39 34 41 43 45 44 37 28 20 22 20 17 19 48 53 51 52 51 40 41 41 44 44 44 44 46 53 52 52 53 49
52 57 58 50 49 48 50 54 55 55 58 53 51 52 50 41 37 43 47 40 34 27 25 19 9 19 39 51 46 51 48 42 44 45 45 44 51 51 48 54 57 59 59 54
45 55 54 45 47 50 56 57 60 60 61 62 58 53 51 51 46 43 33 38 40 33 34 26 28 20 24 31 47 45 44 44 50 45 47 51 57 55 59 59 60 60 58 56
37 53 51 45 49 49 50 55 56 61 62 65 62 61 57 56 53 42 39 38 44 42 42 48 38 26 23 34 39 42 39 41 48 49 51 50 57 60 62 65 64 67 66 58
35 48 48 39 38 40 44 50 52 54 59 63 64 62 58 53 54 51 47 43 44 47 43 48 49 47 41 35 35 37 38 39 44 47 50 52 56 57 58 60 59 56 55 53
23 32 40 36 35 36 39 46 48 46 47 53 56 58 58 55 54 56 55 54 54 52 52 49 42 39 38 34 36 35 37 39 34 39 41 46 47 52 57 60 61 62 61 64
Wind_Direction_500mb
243 264 274 271 273 272 256 247 247 270 269 279 285 293 301 297 299 317 324 343 353 348 325 321 358 353 314 218 213 201 196 194 198 200 203 206 209 209 201 201 201 196 189 189
280 274 267 278 274 263 255 256 260 262 263 257 291 321 314 305 313 308 309 329 340 301 310 353 354 353 353 207 210 210 196 192 190 192 198 200 186 183 191 189 188 182 181 182
278 307 315 280 246 248 240 232 236 252 262 280 296 297 321 315 309 317 330 320 314 310 332 350 343 349 349 341 209 209 199 190 190 194 188 177 176 186 189 179 173 174 176 179
279 25 243 245 237 257 263 249 242 279 278 249 263 286 304 306 332 330 326 312 315 324 336 341 342 349 6 322 188 200 191 195 192 183 178 172 175 182 171 168 172 173 175 179
226 215 287 289 316 202 352 295 220 232 260 255 299 311 302 296 322 318 316 310 314 315 328 334 343 355 350 339 197 210 212 199 188 180 171 168 173 171 168 170 172 173 177 184
173 243 238 234 248 50 65 278 240 231 269 283 335 305 298 309 318 319 326 319 315 325 330 335 346 344 329 318 248 190 219 205 189 173 167 169 168 169 170 169 168 171 177 183
251 264 278 253 149 93 244 256 308 293 296 286 288 275 292 298 312 318 318 324 326 328 326 332 346 344 325 266 231 270 193 198 174 163 169 165 166 166 166 167 170 176 181 184
211 229 264 154 100 208 259 256 286 281 279 281 283 288 290 296 307 315 319 321 323 329 332 335 347 351 324 258 224 231 306 172 163 162 165 165 161 163 169 171 174 180 186 192
213 231 243 260 273 290 290 281 283 281 284 284 277 280 290 297 306 310 309 311 318 326 329 335 351 345 18 154 155 224 269 162 153 157 163 163 162 169 173 179 184 187 193 196
329 269 269 295 296 313 315 282 294 296 288 293 284 286 288 298 299 294 301 303 314 317 323 323 348 343 269 200 228 271 180 153 153 162 165 167 171 176 179 182 189 196 195 196
255 282 306 284 292 292 295 295 296 301 291 290 288 283 287 289 287 289 297 303 307 304 307 318 336 334 179 197 237 223 172 163 164 162 166 169 176 181 186 192 199 199 198 194
290 307 292 283 296 303 300 302 301 300 296 291 285 282 277 277 285 288 289 287 291 294 302 319 325 325 210 174 325 177 178 171 166 167 176 177 178 177 179 179 180 189 191 184
278 285 292 288 298 308 312 310 309 304 298 292 285 279 278 276 281 277 275 273 275 279 283 301 329 301 194 256 245 184 186 177 174 171 178 179 181 177 168 171 173 169 179 174
304 310 315 328 325 322 314 313 310 308 298 297 290 282 272 267 266 258 255 258 262 253 253 307 338 175 225 244 242 203 197 178 175 178 181 180 183 179 177 175 172 178 178 175
315 315 327 332 328 311 313 318 316 313 314 308 304 289 275 257 249 241 241 234 227 231 226 308 277 220 226 265 188 190 187 176 178 174 176 182 182 183 181 177 177 175 177 173
320 322 334 330 325 317 329 333 328 326 327 328 322 339 236 222 215 214 204 193 202 183 171 284 226 258 275 195 185 182 186 171 170 172 177 178 182 183 182 181 180 177 175 177
326 330 327 329 331 334 340 339 342 336 344 342 27 61 102 119 135 152 163 159 157 183 161 156 169 237 246 190 185 166 185 177 174 176 176 180 182 183 180 181 179 173 172 177
329 336 335 330 333 341 350 353 348 352 355 1 76 130 132 137 149 155 165 165 163 170 195 177 155 234 189 181 172 180 183 171 176 176 179 178 178 179 176 176 174 170 167 160
340 345 341 340 346 358 357 1 356 14 15 40 109 129 140 148 153 157 155 152 167 173 179 161 152 189 172 165 177 187 179 170 174 177 178 171 170 172 172 171 169 166 164 159
352 357 0 359 359 10 15 12 28 33 29 70 97 106 107 121 126 140 158 152 146 150 152 157 154 174 169 167 181 181 181 167 173 179 180 173 169 167 166 163 161 162 155 151
356 1 4 8 8 12 19 27 38 46 42 54 76 84 86 96 112 115 120 128 121 111 145 157 147 149 167 173 171 182 184 182 184 180 179 174 166 164 163 162 161 159 157 158
357 4 8 11 18 25 31 35 40 46 58 67 70 75 93 94 97 91 92 95 106 136 153 140 140 129 159 166 177 188 186 183 185 182 174 172 166 167 166 165 167 169 168 165
354 4 9 14 23 30 30 41 46 55 57 60 68 72 72 79 81 88 89 88 92 109 115 126 127 124 157 169 185 194 186 187 188 182 184 185 179 174 172 177 174 173 173 174
356 8 15 16 26 34 39 42 52 56 63 65 65 66 75 77 81 81 92 109 107 99 114 140 124 116 126 167 168 175 178 184 180 192 193 196 196 185 182 182 182 182 183 184
3 12 18 25 29 37 38 42 51 58 58 60 61 63 64 69 75 81 85 90 112 120 118 120 128 129 155 161 154 153 158 172 181 186 187 186 185 187 185 185 184 184 185 187
1 12 20 31 37 38 42 47 51 56 61 61 61 62 63 68 74 79 85 89 94 103 106 110 120 126 129 139 142 143 147 162 176 178 176 175 176 177 175 175 176 178 177 171
338 4 18 34 47 47 48 50 51 55 58 63 64 65 66 68 74 77 79 82 86 88 92 94 98 109 113 123 130 133 136 142 154 164 170 163 162 165 163 163 162 162 161 158
Wind_Speed_850mb
18 29 33 40 42 41 36 35 25 39 42 41 24 22 27 25 34 40 78 46 66 92 91 79 56 53 26 28 35 45 56 64 65 63 54 49 49 47 46 51 58 62 58 50
25 35 40 38 35 37 39 39 38 35 38 18 12 19 16 31 37 37 44 61 47 65 68 81 54 56 27 20 36 49 58 67 64 57 53 50 50 47 50 52 59 61 56 46
19 5 20 20 14 12 10 18 18 17 22 6 12 17 19 41 45 24 39 63 64 60 71 76 71 47 25 18 30 45 66 64 61 55 54 56 54 56 51 58 63 58 49 42
6 6 7 11 7 8 13 16 17 13 17 12 17 35 35 36 15 37 49 63 67 62 66 65 68 58 21 15 28 43 57 58 58 59 61 61 59 53 60 64 59 54 44 41
5 8 13 16 10 4 5 29 8 13 14 14 29 30 23 16 30 44 56 56 58 57 56 60 59 55 24 21 27 30 52 58 66 70 70 65 54 60 59 61 56 49 42 41
5 7 11 12 6 7 7 16 10 13 19 24 29 26 19 42 68 72 69 54 57 65 52 49 52 52 37 20 9 16 49 61 69 69 66 59 64 62 60 54 50 46 45 36
16 10 14 12 9 14 4 14 8 17 45 46 29 36 66 70 78 75 66 61 65 63 53 46 53 56 39 23 30 13 36 64 67 64 57 63 62 61 57 53 47 45 43 37
6 10 13 10 9 11 19 20 32 41 63 65 75 74 61 60 71 85 74 68 60 62 52 46 46 53 22 19 26 45 51 78 72 63 61 65 61 57 51 53 51 48 42 40
10 9 13 22 42 57 56 60 55 57 62 64 68 69 64 60 77 74 56 60 63 61 53 40 40 36 13 31 36 31 31 74 64 57 61 61 59 55 52 51 49 48 43 39
11 12 21 40 62 44 61 53 65 70 70 76 71 67 68 70 73 61 54 61 58 55 47 40 35 28 5 49 73 41 41 65 63 61 63 60 54 50 49 49 46 46 45 40
13 19 29 35 49 62 66 72 78 77 70 61 61 63 71 75 65 57 56 58 55 43 40 35 35 25 9 28 19 10 62 63 65 61 59 59 55 50 43 40 37 42 41 37
26 41 42 49 71 79 76 70 55 48 62 71 66 75 64 66 73 68 65 52 49 35 33 26 33 21 11 14 8 27 57 66 68 58 57 57 54 47 40 35 30 23 25 26
30 51 68 74 70 58 55 55 65 76 83 76 61 50 59 76 76 54 44 48 41 32 23 17 23 8 16 15 9 25 47 62 66 56 56 54 50 50 51 42 34 29 29 26
61 51 38 31 43 61 63 85 74 58 61 63 66 61 61 57 50 40 42 42 33 25 20 12 8 13 13 13 23 37 52 64 49 50 51 50 47 51 48 47 45 39 34 34
54 51 39 59 76 61 69 67 59 57 55 59 56 57 52 50 47 40 36 28 24 19 12 10 10 15 17 18 38 54 54 60 54 49 45 42 45 46 43 40 43 42 39 37
56 36 58 58 67 66 60 56 53 56 53 54 44 27 10 20 22 23 21 27 29 26 12 2 6 23 26 25 46 63 69 55 49 48 45 43 43 45 44 44 46 44 40 37
34 38 54 62 61 57 54 52 47 48 47 36 26 15 19 17 18 21 25 26 21 17 19 21 15 27 27 57 56 62 60 59 50 49 44 40 39 42 43 44 47 46 38 27
34 44 51 51 51 60 53 47 42 40 36 25 13 14 19 24 26 29 29 31 27 23 24 31 33 28 50 60 68 64 68 57 51 45 41 38 35 36 41 45 46 43 33 28
40 52 51 47 44 47 46 44 42 40 30 21 16 19 18 18 23 30 38 43 40 37 32 44 38 37 56 74 77 69 65 54 47 43 37 36 33 39 46 42 40 34 31 33
48 63 60 50 54 48 43 38 40 40 33 21 21 23 24 25 32 34 39 42 40 36 43 45 48 43 50 74 64 64 62 48 40 37 41 39 36 40 41 39 39 37 35 40
50 65 56 49 55 55 50 50 52 47 41 30 36 38 35 34 38 37 39 42 28 23 31 39 37 38 47 55 54 56 55 42 39 39 43 41 42 40 41 43 46 44 47 49
53 63 57 51 50 54 57 55 57 51 47 45 41 39 34 41 43 45 44 37 28 20 22 20 17 19 48 53 51 52 51 40 41 41 44 44 44 44 46 53 52 52 53 49
52 57 58 50 49 48 50 54 55 55 58 53 51 52 50 41 37 43 47 40 34 27 25 19 9 19 39 51 46 51 48 42 44 45 45 44 51 51 48 54 57 59 59 54
45 55 54 45 47 50 56 57 60 60 61 62 58 53 51 51 46 43 33 38 40 33 34 26 28 20 24 31 47 45 44 44 50 45 47 51 57 55 59 59 60 60 58 56
37 53 51 45 49 49 50 55 56 61 62 65 62 61 57 56 53 42 39 38 44 42 42 48 38 26 23 34 39 42 39 41 48 49 51 50 57 60 62 65 64 67 66 58
35 48 48 39 38 40 44 50 52 54 59 63 64 62 58 53 54 51 47 43 44 47 43 48 49 47 41 35 35 37 38 39 44 47 50 52 56 57 58 60 59 56 55 53
23 32 40 36 35 36 39 46 48 46 47 53 56 58 58 55 54 56 55 54 54 52 52 49 42 39 38 34 36 35 37 39 34 39 41 46 47 52 57 60 61 62 61 64
Wind_Direction_850mb
243 264 274 271 273 272 256 247 247 270 269 279 285 293 301 297 299 317 324 343 353 348 325 321 358 353 314 218 213 201 196 194 198 200 203 206 209 209 201 201 201 196 189 189
280 274 267 278 274 263 255 256 260 262 263 257 291 321 314 305 313 308 309 329 340 301 310 353 354 353 353 207 210 210 196 192 190 192 198 200 186 183 191 189 188 182 181 182
278 307 315 280 246 248 240 232 236 252 262 280 296 297 321 315 309 317 330 320 314 310 332 350 343 349 349 341 209 209 199 190 190 194 188 177 176 186 189 179 173 174 176 179
279 25 243 245 237 257 263 249 242 279 278 249 263 286 304 306 332 330 326 312 315 324 336 341 342 349 6 322 188 200 191 195 192 183 178 172 175 182 171 168 172 173 175 179
226 215 287 289 316 202 352 295 220 232 260 255 299 311 302 296 322 318 316 310 314 315 328 334 343 355 350 339 197 210 212 199 188 180 171 168 173 171 168 170 172 173 177 184
173 243 238 234 248 50 65 278 240 231 269 283 335 305 298 309 318 319 326 319 315 325 330 335 346 344 329 318 248 190 219 205 189 173 167 169 168 169 170 169 168 171 177 183
251 264 278 253 149 93 244 256 308 293 296 286 288 275 292 298 312 318 318 324 326 328 326 332 346 344 325 266 231 270 193 198 174 163 169 165 166 166 166 167 170 176 181 184
211 229 264 154 100 208 259 256 286 281 279 281 283 288 290 296 307 315 319 321 323 329 332 335 347 351 324 258 224 231 306 172 163 162 165 165 161 163 169 171 174 180 186 192
213 231 243 260 273 290 290 281 283 281 284 284 277 280 290 297 306 310 309 311 318 326 329 335 351 345 18 154 155 224 269 162 153 157 163 163 162 169 173 179 184 187 193 196
329 269 269 295 296 313 315 282 294 296 288 293 284 286 288 298 299 294 301 303 314 317 323 323 348 343 269 200 228 271 180 153 153 162 165 167 171 176 179 182 189 196 195 196
255 282 306 284 292 292 295 295 296 301 291 290 288 283 287 289 287 289 297 303 307 304 307 318 336 334 179 197 237 223 172 163 164 162 166 169 176 181 186 192 199 199 198 194
290 307 292 283 296 303 300 302 301 300 296 291 285 282 277 277 285 288 289 287 291 294 302 319 325 325 210 174 325 177 178 171 166 167 176 177 178 177 179 179 180 189 191 184
278 285 292 288 298 308 312 310 309 304 298 292 285 279 278 276 281 277 275 273 275 279 283 301 329 301 194 256 245 184 186 177 174 171 178 179 181 177 168 171 173 169 179 174
304 310 315 328 325 322 314 313 310 308 298 297 290 282 272 267 266 258 255 258 262 253 253 307 338 175 225 244 242 203 197 178 175 178 181 180 183 179 177 175 172 178 178 175
315 315 327 332 328 311 313 318 316 313 314 308 304 289 275 257 249 241 241 234 227 231 226 308 277 220 226 265 188 190 187 176 178 174 176 182 182 183 181 177 177 175 177 173
320 322 334 330 325 317 329 333 328 326 327 328 322 339 236 222 215 214 204 193 202 183 171 284 226 258 275 195 185 182 186 171 170 172 177 178 182 183 182 181 180 177 175 177
326 330 327 329 331 334 340 339 342 336 344 342 27 61 102 119 135 152 163 159 157 183 161 156 169 237 246 190 185 166 185 177 174 176 176 180 182 183 180 181 179 173 172 177
329 336 335 330 333 341 350 353 348 352 355 1 76 130 132 137 149 155 165 165 163 170 195 177 155 234 189 181 172 180 183 171 176 176 179 178 178 179 176 176 174 170 167 160
340 345 341 340 346 358 357 1 356 14 15 40 109 129 140 148 153 157 155 152 167 173 179 161 152 189 172 165 177 187 179 170 174 177 178 171 170 172 172 171 169 166 164 159
352 357 0 359 359 10 15 12 28 33 29 70 97 106 107 121 126 140 158 152 146 150 152 157 154 174 169 167 181 181 181 167 173 179 180 173 169 167 166 163 161 162 155 151
356 1 4 8 8 12 19 27 38 46 42 54 76 84 86 96 112 115 120 128 121 111 145 157 147 149 167 173 171 182 184 182 184 180 179 174 166 164 163 162 161 159 157 158
357 4 8 11 18 25 31 35 40 46 58 67 70 75 93 94 97 91 92 95 106 136 153 140 140 129 159 166 177 188 186 183 185 182 174 172 166 167 166 165 167 169 168 165
354 4 9 14 23 30 30 41 46 55 57 60 68 72 72 79 81 88 89 88 92 109 115 126 127 124 157 169 185 194 186 187 188 182 184 185 179 174 172 177 174 173 173 174
356 8 15 16 26 34 39 42 52 56 63 65 65 66 75 77 81 81 92 109 107 99 114 140 124 116 126 167 168 175 178 184 180 192 193 196 196 185 182 182 182 182 183 184
3 12 18 25 29 37 38 42 51 58 58 60 61 63 64 69 75 81 85 90 112 120 118 120 128 129 155 161 154 153 158 172 181 186 187 186 185 187 185 185 184 184 185 187
1 12 20 31 37 38 42 47 51 56 61 61 61 62 63 68 74 79 85 89 94 103 106 110 120 126 129 139 142 143 147 162 176 178 176 175 176 177 175 175 176 178 177 171
338 4 18 34 47 47 48 50 51 55 58 63 64 65 66 68 74 77 79 82 86 88 92 94 98 109 113 123 130 133 136 142 154 164 170 163 162 165 163 163 162 162 161 158